COSMOS 1823 DEB, 39811

Orbit data source: Space-Track

COSMOS 1823 DEB, 39811 is space debris in LEO originally from a launch on Fri, 20 Feb 1987 UTC launched from the Plesetsk Missile And Space Complex (PKMTR). Debris objects in space refer to the collection of defunct objects orbiting the Earth. Examples of debris include non-operational satellites, rocket bodies, and fragments generated from explosions, collisions, or faulty payload assembly.

Loading next visibility...
Identifier
39811, 1987-020EK
Orbit
LEO
Country
Flag of CISCIS
Related business
Manufacturer
Unknown
Mission
Spacecraft
Bus & Motor
Unknown
Mass
Unknown
Launch date (UTC)
1987-02-20 (39 years ago)
Launch vehicle
Unknown
Launch site
Plesetsk Missile And Space Complex (PKMTR)
Object type
Payload
Rocket body
Debris
Shape & HBR
Unknown shape, 0.1 m
Radar Cross Section
Small (<0.1 m²)

Expand to show TLE details & history
Last TLE update: 1 week ago

TLE from 1 week ago
0 COSMOS 1823 DEB
1 39811U 87020EK  26165.20386667  .00000171  00000-0  12934-2 0  9997
2 39811  73.6300 349.1601 0039690 109.7846  11.2026 12.46433480 22347
Epoch: 2026-06-14T04:53Z
TLE epoch observation values (Epoch: 2026-06-14T04:53:34.080Z)
Latitude
55.36131°
Longitude
168.22938°
Altitude
1,457.623 km
Speed
7.153 km/s
True Right ascension
09h 36m 31s
True Declination
55° 12' 53"
Sunlit
Object was in daylight at epoch
Visualization orbit readout
Latitude
Unknown
Longitude
Unknown
Altitude
Unknown
Speed
Unknown
Apparent Right ascension
Unknown
Apparent Declination
Unknown
Sunlit
N/A
Visualization observer readout
Local Sidereal Time
23:08:11
Azimuth
Unknown
Elevation
Unknown
Doppler factor
Unknown
Orbital elements
Apogee altitude
1,508.497 km
Perigee altitude
1,446.141 km
Semi-major axis
7,855.456 km
Eccentricity
0.00397
Inclination
73.63°
RAAN
349.1601°
Arg. of periapsis
109.7846°
True anomaly
11.29139°
Mean anomaly
11.2026°
Eccentric anomaly
11.24695°
Mean motion
3.11735 °/min
Orbital period
115.48 mins
BSTAR
0.0012934
Loading maneuver chart data...
Computing Atmospheric mass density...

Documentation

Showing up to 5 results
|